Location: Caltech
(34.1382°N, 118.1253°W)
Time: 00:58:51
(UTC-07:00)

Iridium 3 - Visible Passes

Search period start: 23 October 2014 00:00
Search period end: 02 November 2014 00:00
Orbit: 776 x 779 km, 86.4° (Epoch: 22 October)

Date Brightness Start Highest point End Pass type
(mag) Time Alt. Az. Time Alt. Az. Time Alt. Az.
23 Oct 8.1 05:30:42 10° NNE 05:34:38 21° E 05:38:33 10° SE visible
23 Oct 8.5 20:05:37 10° WSW 20:08:32 15° WNW 20:11:29 10° NW visible
24 Oct 8.8 04:59:40 10° ENE 05:00:48 11° ENE 05:01:56 10° E visible
24 Oct 5.5 06:36:48 10° N 06:41:59 68° W 06:47:08 10° S visible
24 Oct 7.6 19:30:19 10° SW 19:34:46 29° W 19:39:16 10° NNW visible
25 Oct 6.1 06:03:19 10° N 06:08:28 62° E 06:13:36 10° SSE visible
25 Oct 6.3 18:56:02 10° SSW 19:01:08 56° W 19:06:15 10° N visible
26 Oct 7.4 05:30:14 10° NNE 05:34:51 31° E 05:39:26 10° SE visible
26 Oct 5.5 18:22:26 10° S 18:27:36 75° E 18:32:48 10° N visible
27 Oct 8.4 04:57:51 10° NE 05:01:05 17° ENE 05:04:19 10° ESE visible
27 Oct 5.8 06:37:04 10° NNW 06:42:00 45° W 06:46:55 10° SSW visible
27 Oct 8.3 19:31:17 10° SW 19:34:59 20° W 19:38:42 10° NNW visible
28 Oct 5.5 06:03:20 10° N 06:08:34 89° W 06:13:45 10° S visible
28 Oct 7.2 18:56:29 10° SSW 19:01:16 37° W 19:06:05 10° NNW visible
29 Oct 6.6 05:29:59 10° N 05:35:00 47° E 05:39:59 10° SSE visible
29 Oct 5.9 18:22:29 10° S 18:27:40 74° W 18:32:53 10° N visible
30 Oct 7.7 04:57:07 10° NNE 05:01:19 24° E 05:05:30 10° SE visible
30 Oct 6.3 06:37:29 10° NNW 06:41:58 30° W 06:46:27 10° SW visible
30 Oct 8.6 19:32:55 10° WSW 19:35:15 13° WNW 19:37:36 10° NW visible
31 Oct 8.6 04:25:21 10° NE 04:27:31 13° ENE 04:29:41 10° ESE visible
31 Oct 5.5 06:03:29 10° N 06:08:36 59° W 06:13:42 10° SSW visible
31 Oct 7.9 18:57:12 10° SW 19:01:27 25° W 19:05:43 10° NNW visible
01 Nov 5.8 05:29:54 10° N 05:35:07 71° E 05:40:17 10° S visible
01 Nov 6.7 18:22:46 10° SSW 18:27:46 48° W 18:32:49 10° N visible
